Hourly Weather Otrokhy

Today, 23 July, Friday

Time Temperature Precipitation Wind Pressure Humidity
00:00 +15°C° 0 mm 2 mps 750 mmHg 66%
01:00 +15°C° 0 mm 2 mps 750 mmHg 69%
02:00 +14°C° 0 mm 2 mps 750 mmHg 70%
03:00 +14°C° 0 mm 2 mps 750 mmHg 72%
04:00 +14°C° 0 mm 2 mps 751 mmHg 73%
05:00 +14°C° 0 mm 2 mps 751 mmHg 75%
06:00 +16°C° 0 mm 3 mps 751 mmHg 69%
07:00 +18°C° 0 mm 3 mps 751 mmHg 63%
08:00 +20°C° 0 mm 3 mps 751 mmHg 59%
09:00 +21°C° 0 mm 3 mps 751 mmHg 55%
10:00 +24°C° 0 mm 3 mps 751 mmHg 50%
11:00 +25°C° 0 mm 3 mps 750 mmHg 46%
12:00 +26°C° 0 mm 3 mps 750 mmHg 45%
13:00 +26°C° 0 mm 3 mps 750 mmHg 43%
14:00 +27°C° 0 mm 3 mps 750 mmHg 41%
15:00 +26°C° 0 mm 3 mps 750 mmHg 46%
16:00 +25°C° 0 mm 3 mps 750 mmHg 50%
17:00 +25°C° 0 mm 3 mps 750 mmHg 55%
18:00 +24°C° 0 mm 3 mps 750 mmHg 59%
19:00 +23°C° 0 mm 2 mps 750 mmHg 62%
20:00 +21°C° 0 mm 2 mps 750 mmHg 66%
21:00 +20°C° 0 mm 2 mps 750 mmHg 66%
22:00 +20°C° 0 mm 2 mps 750 mmHg 67%
23:00 +20°C° 0 mm 2 mps 750 mmHg 67%

Tomorrow, 24 July, Saturday

Time Temperature Precipitation Wind Pressure Humidity
00:00 +20°C° 0 mm 2 mps 750 mmHg 68%
01:00 +19°C° 0 mm 2 mps 751 mmHg 68%
02:00 +19°C° 0 mm 2 mps 751 mmHg 68%
03:00 +19°C° 0 mm 2 mps 751 mmHg 69%
04:00 +19°C° 0 mm 2 mps 751 mmHg 70%
05:00 +19°C° 0 mm 2 mps 751 mmHg 71%
06:00 +19°C° 0 mm 2 mps 751 mmHg 68%
07:00 +20°C° 0 mm 2 mps 751 mmHg 65%
08:00 +21°C° 0 mm 3 mps 751 mmHg 62%
09:00 +24°C° 0 mm 2 mps 751 mmHg 57%
10:00 +25°C° 0 mm 2 mps 751 mmHg 51%
11:00 +27°C° 0 mm 2 mps 751 mmHg 45%
12:00 +27°C° 0 mm 2 mps 751 mmHg 46%
13:00 +27°C° 0 mm 2 mps 751 mmHg 47%
14:00 +27°C° 0 mm 2 mps 751 mmHg 47%
15:00 +26°C° 0 mm 2 mps 751 mmHg 53%
16:00 +25°C° 0 mm 2 mps 752 mmHg 59%
17:00 +24°C° 0 mm 1 mps 752 mmHg 65%
18:00 +24°C° 0 mm 1 mps 752 mmHg 66%
19:00 +23°C° 0 mm 1 mps 752 mmHg 67%
20:00 +22°C° 0 mm 1 mps 752 mmHg 67%
21:00 +22°C° 0 mm 1 mps 753 mmHg 68%
22:00 +22°C° 0 mm 1 mps 753 mmHg 68%
23:00 +21°C° 0 mm 1 mps 753 mmHg 69%

Day after tomorrow, 25 July, Sunday

Time Temperature Precipitation Wind Pressure Humidity
00:00 +21°C° 0 mm 1 mps 753 mmHg 69%
01:00 +21°C° 0 mm 1 mps 753 mmHg 70%
02:00 +19°C° 0 mm 0 mps 753 mmHg 71%
03:00 +18°C° 0 mm 0 mps 753 mmHg 72%
04:00 +18°C° 0 mm 0 mps 753 mmHg 73%
05:00 +18°C° 0 mm 0 mps 754 mmHg 73%
06:00 +19°C° 0 mm 0 mps 754 mmHg 71%
07:00 +20°C° 0 mm 0 mps 754 mmHg 68%
08:00 +21°C° 0 mm 0 mps 754 mmHg 65%
09:00 +22°C° 0 mm 0 mps 754 mmHg 63%
10:00 +24°C° 0 mm 1 mps 754 mmHg 61%
11:00 +25°C° 0 mm 1 mps 755 mmHg 59%
12:00 +25°C° 0 mm 1 mps 755 mmHg 57%
13:00 +26°C° 0 mm 1 mps 755 mmHg 55%
14:00 +26°C° 0 mm 1 mps 755 mmHg 53%
15:00 +26°C° 0 mm 1 mps 755 mmHg 52%
16:00 +27°C° 0 mm 1 mps 755 mmHg 51%
17:00 +27°C° 0 mm 1 mps 755 mmHg 49%
18:00 +25°C° 0 mm 1 mps 755 mmHg 53%
19:00 +24°C° 0 mm 1 mps 755 mmHg 56%
20:00 +23°C° 0 mm 1 mps 755 mmHg 59%
21:00 +22°C° 0 mm 1 mps 755 mmHg 62%
22:00 +22°C° 0 mm 1 mps 755 mmHg 65%
23:00 +20°C° 0 mm 2 mps 755 mmHg 68%

26 July, Monday

Time Temperature Precipitation Wind Pressure Humidity
00:00 +19°C° 0 mm 2 mps 755 mmHg 70%
01:00 +19°C° 0 mm 2 mps 755 mmHg 72%
02:00 +19°C° 0 mm 2 mps 755 mmHg 74%
03:00 +19°C° 0 mm 2 mps 756 mmHg 74%
04:00 +19°C° 0 mm 2 mps 756 mmHg 74%
05:00 +19°C° 0 mm 2 mps 756 mmHg 74%
06:00 +20°C° 0 mm 2 mps 756 mmHg 71%
07:00 +21°C° 0 mm 2 mps 756 mmHg 67%
08:00 +24°C° 0 mm 2 mps 756 mmHg 63%
09:00 +25°C° 0 mm 2 mps 756 mmHg 56%
10:00 +27°C° 0 mm 2 mps 756 mmHg 48%
11:00 +29°C° 0 mm 2 mps 756 mmHg 41%
12:00 +29°C° 0 mm 2 mps 756 mmHg 39%
13:00 +30°C° 0 mm 2 mps 756 mmHg 38%
14:00 +30°C° 0 mm 2 mps 756 mmHg 36%
15:00 +30°C° 0 mm 2 mps 755 mmHg 38%
16:00 +30°C° 0 mm 2 mps 755 mmHg 40%
17:00 +29°C° 0 mm 2 mps 755 mmHg 42%
18:00 +27°C° 0 mm 2 mps 755 mmHg 48%
19:00 +26°C° 0 mm 2 mps 755 mmHg 54%
20:00 +24°C° 0 mm 3 mps 755 mmHg 60%
21:00 +22°C° 0 mm 3 mps 755 mmHg 62%
22:00 +21°C° 0 mm 3 mps 755 mmHg 63%
23:00 +21°C° 0 mm 3 mps 755 mmHg 65%

27 July, Tuesday

Time Temperature Precipitation Wind Pressure Humidity
00:00 +20°C° 0 mm 2 mps 755 mmHg 67%
01:00 +20°C° 0 mm 2 mps 755 mmHg 68%
02:00 +19°C° 0 mm 2 mps 755 mmHg 70%
03:00 +19°C° 0 mm 2 mps 755 mmHg 71%
04:00 +19°C° 0 mm 2 mps 755 mmHg 72%
05:00 +18°C° 0 mm 2 mps 755 mmHg 74%
06:00 +21°C° 0 mm 3 mps 755 mmHg 68%
07:00 +24°C° 0 mm 3 mps 755 mmHg 62%
08:00 +26°C° 0 mm 3 mps 755 mmHg 55%
09:00 +27°C° 0 mm 4 mps 755 mmHg 51%
10:00 +28°C° 0 mm 4 mps 755 mmHg 47%
11:00 +30°C° 0 mm 5 mps 755 mmHg 43%
12:00 +29°C° 0.1 mm 4 mps 754 mmHg 49%
13:00 +27°C° 0.1 mm 4 mps 754 mmHg 55%
14:00 +26°C° 0.1 mm 3 mps 754 mmHg 62%
15:00 +25°C° 0 mm 3 mps 754 mmHg 62%
16:00 +25°C° 0 mm 4 mps 754 mmHg 63%
17:00 +25°C° 0 mm 4 mps 753 mmHg 64%
18:00 +24°C° 0 mm 3 mps 753 mmHg 64%
19:00 +24°C° 0 mm 3 mps 753 mmHg 64%
20:00 +22°C° 0 mm 3 mps 753 mmHg 64%
21:00 +22°C° 0.1 mm 3 mps 753 mmHg 67%
22:00 +21°C° 0.1 mm 3 mps 753 mmHg 71%
23:00 +20°C° 0.1 mm 4 mps 753 mmHg 75%

28 July, Wednesday

Time Temperature Precipitation Wind Pressure Humidity
00:00 +21°C° 0.1 mm 4 mps 752 mmHg 73%
01:00 +21°C° 0.1 mm 5 mps 752 mmHg 71%
02:00 +22°C° 0.1 mm 5 mps 751 mmHg 70%
03:00 +21°C° 0 mm 5 mps 751 mmHg 73%
04:00 +20°C° 0 mm 4 mps 751 mmHg 77%
05:00 +20°C° 0 mm 4 mps 751 mmHg 81%
06:00 +21°C° 0 mm 4 mps 751 mmHg 78%
07:00 +22°C° 0 mm 4 mps 751 mmHg 76%
08:00 +25°C° 0 mm 4 mps 751 mmHg 74%
09:00 +26°C° 0 mm 3 mps 752 mmHg 68%
10:00 +28°C° 0 mm 3 mps 752 mmHg 62%
11:00 +29°C° 0 mm 3 mps 752 mmHg 55%
12:00 +30°C° 0 mm 2 mps 751 mmHg 52%
13:00 +31°C° 0 mm 2 mps 751 mmHg 48%
14:00 +31°C° 0 mm 2 mps 751 mmHg 45%
15:00 +32°C° 0 mm 2 mps 751 mmHg 44%
16:00 +32°C° 0 mm 1 mps 751 mmHg 44%
17:00 +32°C° 0 mm 1 mps 750 mmHg 43%
18:00 +30°C° 0.1 mm 1 mps 750 mmHg 49%
19:00 +28°C° 0.1 mm 1 mps 750 mmHg 56%
20:00 +26°C° 0.1 mm 1 mps 750 mmHg 62%
21:00 +25°C° 0.2 mm 1 mps 750 mmHg 66%
22:00 +24°C° 0.2 mm 1 mps 750 mmHg 70%
23:00 +23°C° 0.2 mm 2 mps 750 mmHg 73%
Show more